Flag for Liechtenstein Weather past 2 weeks in Vaduz, Liechtenstein

Now
49 °F

Cool.


Feels Like: 45 °F
Forecast: 47 / 51 °F
Wind: 12 mph from South

Location: Vaduz

Current Time: Mar 29, 2015 at 8:19:01 PM

Latest Report: Mar 29, 2015 at 7:00 PM


Visibility: N/A

Pressure: 29.85 "Hg

Humidity: 84%

Dew point: 45 °F

Location of VaduzLocation

Historic Weather in Vaduz — Graph

°F

Vaduz temperature yesterday

Maximum temperature yesterday: 60 °F (at 3:00 PM)
Minimum temperature yesterday: 35 °F (at 6:00 AM)
Average temperature yesterday: 48 °F

Past Weeks' High & Low Weather Summary

 TemperatureHumidityPressure
High65 °F (Mar 17, 3:00 PM)96% (Mar 25, 11:00 PM)30.33 "Hg (Mar 25, 11:00 PM)
Low28 °F (Mar 15, 7:00 AM)24% (Mar 16, 2:00 PM)29.50 "Hg (Mar 25, 1:00 PM)
Average49 °F62%30.04 "Hg
* Reported Mar 14 6:00 PM — Mar 29 7:00 PM, Vaduz, Weather by CustomWeather, © 2015

Note: Actual official high and low records may vary slightly from our data, if they occured in-between our weather recording intervals... More about our weather records

Advertising

Vaduz weather history for previous 24 hours

 ConditionsComfort  
Time TempWeatherWind HumidityBarometerVisibility
7:00 PM
Sun, Mar 29
49 °FCool.12 mph84%29.85 "HgN/A
6:00 PM50 °FCool.6 mph80%29.89 "HgN/A
5:00 PM52 °FRain. Overcast.8 mph81%29.85 "Hg4 mi
4:00 PM54 °FCool.7 mph68%29.85 "HgN/A
3:00 PM57 °FRefreshingly cool.3 mph53%29.84 "HgN/A
2:00 PM57 °FOvercast.3 mph56%29.85 "Hg4 mi
1:00 PM54 °FCool.2 mph62%29.90 "HgN/A
12:00 PM53 °FCool.6 mph63%29.93 "HgN/A
11:00 AM50 °FOvercast.6 mph63%29.97 "Hg4 mi
10:00 AM49 °FCool.3 mph65%29.99 "HgN/A
9:00 AM47 °FCool.7 mph68%30.00 "HgN/A
8:00 AM45 °FOvercast.7 mph77%30.05 "Hg2 mi
7:00 AM45 °FQuite cool.1 mph79%30.05 "HgN/A
6:00 AM46 °FCool.7 mph79%30.06 "HgN/A
5:00 AM45 °FRain. Overcast.3 mph84%30.10 "Hg6 mi
4:00 AM45 °FQuite cool.5 mph85%30.11 "HgN/A
3:00 AM45 °FCool.2 mph86%30.13 "HgN/A
1:00 AM45 °FLight rain. Overcast.3 mph86%30.14 "Hg5 mi
12:00 AM45 °FCool.3 mph84%30.14 "HgN/A
11:00 PM
Sat, Mar 28
46 °FCool.5 mph83%30.16 "HgN/A
9:00 PM47 °FCool.6 mph79%30.14 "HgN/A
8:00 PM49 °FCool.2 mph70%30.14 "HgN/A
Weather by CustomWeather, © 2015

See weather overviewHow to use our weather pages